< < Back
Terminal Aerodrome Forecast


Current Version              Previous Versions:   1  2  3  4  5  6  7  8  9  

Terminal Aerodrome Forecast

232
FTUS42 KJAX 262300
TAFGNV
TAF
KGNV 262339Z 2700/2724 25002KT P6SM SKC
     FM271000 25004KT P6SM SKC WS010/26030KT
     FM271400 31010G18KT P6SM FEW030=

Latest METAR

065
SAUS70 KWBC 280000
MTRGNV
METAR KGNV 272353Z 33004KT 10SM CLR 09/01 A3028 RMK AO2 SLP253 T00940011
10178 20094 53023


USA.gov is the U.S. government's official web portal to all federal, state and local government web resources and services.